Location: Mt. Cuba Astronomical Observatory
(39.8100°N, 75.6300°W)
Time: 03:58:28
(UTC-04:00)

Daily predictions for brighter satellites

Satellite Brightness Start Highest point End
(mag) Time Altitude Azimuth Time Altitude Azimuth Time Altitude Azimuth
Cosmos 1340 4.2 00:08:08 35° N 00:08:08 35° N 00:10:28 10° N
Cosmos 1953 4.3 00:04:04 10° NW 00:06:37 22° WNW 00:06:37 22° WNW
COSMOS 2406 3.9 00:09:27 38° WSW 00:11:05 50° WNW 00:16:40 10° NNE
Cosmos 2208 Rocket 4.5 00:08:47 10° NNW 00:13:24 49° W 00:13:24 49° W
CZ-4B R/B 3.5 00:17:28 28° NNE 00:17:28 28° NNE 00:19:28 10° N
S3M 4.3 00:12:03 10° N 00:18:08 52° E 00:18:39 51° E
USA 238 DEB 4.3 00:13:44 22° WSW 00:18:20 54° NW 00:25:16 10° NNE
USA 238 4.3 00:13:54 22° WSW 00:18:25 55° NW 00:25:22 10° NNE
Terra 4.0 00:22:47 15° W 00:22:57 15° W 00:25:34 10° WNW
Cosmos 1655 Rocket 3.8 00:22:30 77° S 00:23:01 89° E 00:29:20 10° N
CZ-4C R/B 2.3 00:26:51 62° ENE 00:26:51 62° ENE 00:31:58 10° NE
Lacrosse 5 4.5 00:25:55 10° NNW 00:29:14 17° NNE 00:32:32 10° ENE
Cosmos 1428 Rocket 4.4 00:30:12 66° ESE 00:30:22 66° E 00:36:30 10° NNE
Cosmos 2082 Rocket 3.6 00:32:38 25° E 00:32:38 25° E 00:36:12 10° NE
Cosmos 1766 Rocket 4.4 00:34:24 48° NNE 00:34:24 48° NNE 00:37:42 10° N
Cosmos 1707 4.4 00:35:25 31° NW 00:35:25 31° NW 00:37:55 10° N
H-2A R/B 3.8 00:37:04 10° N 00:39:24 34° N 00:39:24 34° N
Cosmos 1833 Rocket 4.2 00:41:56 23° E 00:41:56 23° E 00:45:23 10° NE
NOSS 3-3 (A) 4.5 00:37:53 10° NNW 00:45:22 78° NE 00:47:25 53° SE
NOSS 3-3 (C) 4.5 00:38:00 10° NNW 00:45:29 78° NE 00:47:33 53° SE
Cosmos 2221 3.8 00:41:57 10° NNW 00:44:51 36° NW 00:44:51 36° NW
Cosmos 1943 Rocket 4.1 00:43:11 10° WNW 00:46:20 18° W 00:46:20 18° W
Meteor 1-24 Rocket 3.9 00:48:55 68° W 00:49:13 69° W 00:55:09 10° N
CENTAUR R/B 4.1 00:50:30 21° E 00:50:30 21° E 00:54:19 10° ENE
Cosmos 2026 Rocket 4.3 00:49:48 51° W 00:50:23 53° W 00:56:19 10° N
NOSS 3-2 (C) 3.3 00:51:59 77° SW 00:52:28 85° NW 00:59:08 10° NNE
Cosmos 841 Rocket 4.4 00:48:13 10° N 00:53:11 41° ENE 00:53:26 40° ENE
Cosmos 2228 Rocket 4.0 00:55:07 10° N 00:58:16 47° N 00:58:16 47° N
CZ-2C R/B 2.7 01:10:51 10° NNE 01:16:07 71° ENE 01:16:07 71° ENE
Cosmos 2344 3.5 01:17:28 61° S 01:19:00 79° ESE 01:27:38 10° NE
ALOS 2 4.5 01:23:39 22° WNW 01:23:39 22° WNW 01:25:52 10° NW
Meteor 1-21 Rocket 4.1 01:24:23 87° NW 01:24:23 87° NW 01:30:03 10° N
Cosmos 883 Rocket 4.3 01:19:39 10° N 01:26:03 89° E 01:26:30 78° S
In-Cosmos 22 4.2 01:26:40 74° WNW 01:26:40 74° WNW 01:32:11 10° N
Nadezhda 2 Rocket 4.4 01:29:53 70° SE 01:30:25 75° E 01:36:43 10° N
ISS 0.3 01:30:17 10° N 01:31:12 11° N 01:32:05 10° NNE
Cosmos 724 4.1 01:32:42 82° E 01:32:42 82° E 01:38:28 10° NNE
Cosmos 2369 3.9 01:28:06 10° NNW 01:33:02 57° WNW 01:33:02 57° WNW
Meteor 2-2 Rocket 4.1 01:28:48 10° N 01:34:33 89° W 01:34:36 89° SSW
Cosmos 1818 4.3 01:35:57 10° NW 01:39:56 42° WNW 01:39:56 42° WNW
Meteor 2-20 Rocket 4.4 01:44:18 66° WSW 01:44:44 68° W 01:50:54 10° N
Cosmos 2058 4.1 01:50:53 38° ENE 01:50:53 38° ENE 01:53:59 10° NNE
Lacrosse 5 rocket 4.3 01:50:15 10° NNW 01:53:12 18° NNE 01:56:13 10° ENE
Cosmos 1151 Rocket 4.0 01:50:20 10° NNW 01:53:18 42° NNW 01:53:18 42° NNW
Cosmos 2315 Rocket 3.8 01:49:14 10° N 01:55:33 76° W 01:56:08 70° SW
Cosmos 1763 Rocket 4.2 01:50:30 10° NNW 01:54:40 43° WNW 01:54:40 43° WNW
Cosmos 2151 3.7 01:57:57 52° N 01:57:57 52° N 02:01:13 10° N
Cosmos 1980 Rocket 2.9 01:51:32 10° NNW 01:57:00 50° ENE 01:58:50 36° ESE
Cosmos 540 Rocket 3.8 01:54:41 10° NNW 01:59:48 59° ENE 02:00:21 55° E
USA 215 3.5 01:59:00 10° NE 02:05:20 51° SE 02:05:58 49° SSE
Cosmos 1745 Rocket 4.4 02:04:06 45° SE 02:05:32 55° E 02:11:42 10° NNE
ERS-2 4.1 02:05:44 10° NE 02:08:05 24° ENE 02:08:05 24° ENE
Cosmos 1437 Rocket 4.3 02:06:41 10° NNW 02:08:56 31° NNW 02:08:56 31° NNW
Cosmos 1300 3.8 02:06:56 10° N 02:09:48 42° NNE 02:09:48 42° NNE
Lacrosse 5 2.3 02:08:05 10° NW 02:13:06 61° NE 02:15:00 36° ESE
CZ-4C R/B 4.2 02:12:00 14° W 02:15:18 22° NW 02:19:58 10° NNE
Cosmos 2082 Rocket 2.9 02:14:28 38° W 02:15:22 41° WNW 02:20:43 10° N
Sich 1 3.5 02:16:31 57° ENE 02:16:31 57° ENE 02:20:33 10° NNE
Cosmos 1697 Rocket 2.6 02:11:56 10° NNW 02:17:35 69° WSW 02:17:38 69° WSW
Cosmos 1833 Rocket 3.3 02:23:37 41° W 02:24:31 44° WNW 02:29:54 10° N
USA 32 4.3 02:22:27 10° NNW 02:27:30 52° W 02:27:30 52° W
Cosmos 1437 4.5 02:29:10 33° N 02:29:10 33° N 02:31:09 10° N
CZ-2C R/B 3.9 02:30:16 38° W 02:30:16 38° W 02:35:15 10° NNW
Cosmos 371 Rocket 3.9 02:27:31 10° N 02:32:18 54° ENE 02:33:43 39° ESE
ATLAS 5 CENTAUR R/B 3.7 02:32:26 17° ESE 02:33:05 18° ESE 02:36:24 10° ENE
BREEZE-M TANK 3.2 02:25:00 10° WSW 02:34:07 63° NNW 02:37:05 10° ENE
PSLV R/B 3.6 02:31:34 10° N 02:36:05 72° WNW 02:36:05 72° WNW
Cosmos 1455 4.0 02:34:46 10° NNE 02:37:57 25° ENE 02:38:55 22° E
CENTAUR R/B 2.7 02:37:39 45° WSW 02:39:27 64° NW 02:46:17 10° NNE
Cosmos 968 Rocket 3.4 02:39:19 65° SSE 02:39:55 74° ESE 02:45:04 10° NNE
Cosmos 1726 2.9 02:36:55 10° N 02:39:41 48° NNW 02:39:41 48° NNW
Cosmos 2360 4.2 02:36:25 10° NNW 02:42:10 81° ENE 02:44:22 39° SSE
Aureole 1 Rocket 4.2 02:45:44 10° NW 02:49:58 40° W 02:49:58 40° W
Meteor 1-27 4.4 02:45:43 10° NNW 02:51:26 58° W 02:52:25 51° SW
IRS-P3 4.0 02:48:24 10° NNE 02:53:46 83° WNW 02:54:57 56° SSW
Resurs 1-4 Rocket 4.2 02:50:24 10° NE 02:54:14 20° E 02:57:57 10° SE
AQUA 3.8 02:52:18 10° NNE 02:57:05 74° ESE 02:58:02 56° SSE
SL-14 R/B 4.1 02:59:09 38° NW 02:59:09 38° NW 03:02:15 10° N
SL-16 R/B 2.7 02:53:05 10° NNW 02:58:43 59° ENE 03:03:59 12° SE
Cosmos 1626 2.8 02:59:56 46° ESE 03:00:14 47° E 03:03:52 10° NNE
Cosmos 1538 Rocket 3.9 02:56:30 10° NNW 03:01:45 78° WSW 03:03:11 48° S
Cosmos 1869 4.3 02:59:09 10° N 03:02:58 43° E 03:04:19 31° SE
Cosmos 2242 Rocket 3.9 03:01:56 10° NNW 03:06:03 48° W 03:06:03 48° W
ISS -0.7 03:05:52 10° NNW 03:08:34 23° NNE 03:11:14 10° E
Cosmos 1703 3.5 03:11:01 54° WNW 03:11:01 54° WNW 03:14:53 10° N
Cosmos 2322 Rocket 2.2 03:05:27 10° NNW 03:11:06 81° ENE 03:15:23 18° SSE
Cosmos 2181 Rocket 4.2 03:06:22 10° N 03:12:30 67° E 03:17:04 19° SSE
OAO 3 Rocket 3.4 03:13:19 45° SSE 03:13:19 45° SSE 03:17:29 10° ESE
Cosmos 1633 Rocket 4.0 03:13:20 32° W 03:13:31 32° WNW 03:17:30 10° NNW
Cosmos 1680 Rocket 4.4 03:09:40 10° N 03:14:42 47° ENE 03:19:43 10° SE
Cosmos 1777 Rocket 3.9 03:14:31 46° SSW 03:16:09 85° WNW 03:21:29 10° NNE
Cosmos 1271 Rocket 2.5 03:18:19 10° NNW 03:22:05 69° W 03:22:18 67° WSW
Cosmos 773 Rocket 3.9 03:17:30 10° NNW 03:22:40 89° WSW 03:25:50 24° SSE
SAR-Lupe-3 4.4 03:23:38 68° WSW 03:23:39 68° WSW 03:27:12 10° NNW
CBERS-1 4.1 03:19:06 10° N 03:24:09 62° WNW 03:25:51 40° SW
EO 1 Del DPAF 4.2 03:23:34 17° SE 03:26:18 46° ENE 03:30:04 10° N
SL-08 R/B 3.7 03:27:42 41° SW 03:28:38 46° W 03:33:21 10° NNW
Cosmos 2292 Rocket 2.6 03:29:25 72° SSE 03:29:39 79° E 03:33:06 10° N
Cosmos 1703 Rocket 4.4 03:26:17 10° N 03:30:32 48° E 03:34:04 14° SSE
Cosmos 1933 4.2 03:27:48 10° N 03:31:44 48° E 03:34:38 17° SSE
ARIANE 5 R/B 2.8 03:27:32 10° NNE 03:32:36 63° ESE 03:35:28 25° S
Cosmos 1470 Rocket 4.1 03:31:57 37° WSW 03:32:46 41° WNW 03:36:59 10° N
GPS 2-05 Rocket1 4.1 03:33:46 27° SE 03:33:46 27° SE 03:35:56 10° ESE
Lacrosse 5 rocket 1.5 03:28:38 10° NW 03:33:03 84° NE 03:37:36 10° SE
ERS-1 4.5 03:29:19 10° NNE 03:34:27 87° ESE 03:37:01 31° SSW
IRS-1D 4.0 03:29:15 10° NNE 03:34:32 59° E 03:37:56 22° S
ADEOS 3.6 03:31:10 10° N 03:36:22 68° WNW 03:38:41 33° SW
Cosmos 1933 Rocket 4.2 03:36:33 34° WSW 03:37:23 37° WNW 03:41:30 10° N
H-2A R/B 4.3 02:50:37 10° W 03:37:30 45° SSW 03:43:30 10° SE
Cosmos 1980 Rocket 3.4 03:36:24 10° NW 03:40:33 22° W 03:40:33 22° W
CZ-2D R/B 2.7 03:36:10 10° NNE 03:41:18 52° E 03:45:19 17° S
Cosmos 2360 Rocket 3.0 03:36:18 10° NNW 03:41:48 52° ENE 03:47:16 10° SE
ERS-2 3.9 03:39:56 10° NNW 03:42:33 19° WNW 03:42:57 18° WNW
Cosmos 2074 Rocket 4.4 03:37:57 15° S 03:43:06 63° E 03:49:16 10° NNE
SL-16 R/B 2.7 03:39:27 10° SSE 03:45:41 76° ENE 03:51:58 10° N
Cosmos 2184 Rocket 4.3 03:42:33 14° S 03:48:02 66° E 03:54:20 10° NNE
USA 215 3.9 03:42:03 10° NE 03:48:17 49° NNW 03:53:19 16° WSW
USA 161 3.1 03:54:45 18° NW 03:54:45 18° NW 03:55:42 10° NW
Cosmos 2219 4.0 03:50:55 15° S 03:55:29 47° ESE 04:00:58 10° NE
Lacrosse 5 3.4 03:51:53 10° WNW 03:54:02 18° W 03:54:02 18° W
Cosmos 2322 4.1 03:51:18 10° NNW 03:57:02 68° ENE 04:02:44 10° SSE
Okean 1-7 3.5 03:53:57 10° N 03:58:19 61° E 04:02:37 10° SSE
Meteor 1-4 Rocket 4.0 03:55:33 10° NW 03:58:34 23° W 03:58:38 23° W
CRYOSAT 2 4.3 04:01:58 10° N 04:06:52 80° W 04:10:45 16° S
Cosmos 2112 Rocket 4.0 04:04:03 10° NNW 04:09:12 64° WSW 04:14:19 10° S
Okean O Rocket 2.6 04:05:54 10° NNE 04:10:08 43° E 04:14:19 10° S
Cosmos 1455 3.7 04:10:49 10° NW 04:13:29 18° W 04:13:56 18° W
Cosmos 1346 4.3 04:16:14 23° WSW 04:17:02 27° WNW 04:19:43 10° NNW
ATLAS 5 CENTAUR R/B 2.2 04:13:59 21° SW 04:17:11 55° NW 04:22:21 10° NNE
H-2A R/B 3.9 04:14:58 16° WSW 04:19:59 54° S 04:57:02 10° ESE
Cosmos 304 Rocket 4.2 04:22:11 10° NW 04:26:42 40° WSW 04:31:10 10° S
COSMOS 2428 3.4 04:21:44 10° NNW 04:27:22 60° ENE 04:32:57 10° SE
Cosmos 2221 Rocket 4.3 04:26:50 10° NNW 04:30:56 35° W 04:34:37 12° SSW
Cosmos 1892 3.6 04:30:02 10° S 04:33:48 50° E 04:37:34 10° NNE
Resurs 1-4 Rocket 2.5 04:29:12 10° N 04:34:19 49° WNW 04:39:02 12° SW
Cosmos 1626 4.5 04:35:28 10° WNW 04:35:58 10° WNW 04:36:27 10° WNW
GENESIS II 4.4 04:32:24 10° NW 04:36:26 55° WSW 04:40:22 10° SSE
Okean-O 4.5 04:32:42 10° NE 04:36:35 29° E 04:40:26 10° SSE
UNKNOWN OBJECT B 3.1 04:33:47 10° N 04:37:28 48° WNW 04:40:49 12° SSW
Cosmos 1869 Rocket 4.4 04:35:04 15° SW 04:38:09 33° WNW 04:42:08 10° NNW
Cosmos 2298 Rocket 4.2 04:35:52 13° SSW 04:40:37 58° WNW 04:45:53 10° N
SL-16 R/B 3.6 04:38:32 10° WNW 04:42:16 18° W 04:45:43 11° SW
Cosmos 292 Rocket 4.0 04:40:11 10° NNW 04:45:00 74° ENE 04:49:46 10° SSE
ISS -3.2 04:42:00 10° WNW 04:45:10 49° SW 04:48:20 10° SE
Cosmos 2237 Rocket 4.5 04:42:16 10° N 04:47:13 30° ENE 04:52:09 10° ESE
CZ-2C R/B 3.7 04:44:27 10° S 04:48:51 61° W 04:53:22 10° NNW
Cosmos 2237 4.3 04:44:04 10° NNW 04:49:50 87° WSW 04:55:33 10° SSE
SME Rocket 4.0 04:43:10 10° S 04:50:08 58° WSW 04:54:52 10° NNW
Meteor 2-3 Rocket 3.9 04:46:01 10° SSW 04:51:43 63° W 04:57:30 10° N
USA 229 DEB 3.8 04:46:06 10° SW 04:52:57 73° NW 04:59:58 10° NNE
USA 229 3.8 04:46:11 10° SW 04:53:03 73° NW 05:00:05 10° NNE
Cosmos 2322 Rocket 3.9 04:52:07 10° WNW 04:54:20 12° W 04:56:33 10° WSW
OAO 3 Rocket 3.7 04:51:49 10° W 04:56:09 39° SSW 05:00:33 10° ESE
Cosmos 990 Rocket 4.1 04:51:36 10° SSW 04:56:46 82° ESE 05:01:57 10° NNE
Cosmos 2341 Rocket 4.1 04:52:33 10° S 04:58:51 86° W 05:05:16 10° N
ATLAS CENTAUR R/B 1.5 04:55:41 10° NW 05:00:22 80° WSW 05:04:38 10° SSE
AVUM R/B 3.7 04:58:41 10° S 05:00:37 33° ESE 05:02:34 10° NE
CZ-2D R/B 4.2 04:57:32 10° N 05:01:23 37° WNW 05:05:08 10° SW
Cosmos 2219 Rocket 3.0 04:58:52 10° NNW 05:04:24 58° ENE 05:09:53 10° SE
CZ-4B R/B 3.0 05:04:27 10° N 05:08:28 69° WNW 05:12:40 10° SSW
Coronas F rocket 1.8 05:06:07 10° S 05:08:49 63° E 05:11:32 10° NNE
Cosmos 1733 Rocket 3.3 05:06:57 10° SSW 05:11:11 54° W 05:15:28 10° N
Thor Agena Rocket 3.8 05:06:33 10° S 05:11:39 50° W 05:16:49 10° NNW
Cosmos 1238 Rocket 4.2 05:06:00 10° N 05:12:49 84° E 05:18:54 10° S
Nadezhda 3 Rocket 4.1 05:07:28 10° NNW 05:13:28 56° W 05:19:26 10° SSW
Centaur D-1AR AC-48 4.5 05:14:06 10° WSW 05:21:49 17° SSW 05:25:36 10° S
